Location: Boitzum
(52.1496°N, 9.6943°E)
Time: 15:07:59
(UTC+00:00)

Cosmos 2278 Rocket - Pass Details

Date: 13 January 2026
Orbit: 839 x 846 km, 71.0° (Epoch: 16 February)

Event Time Altitude Azimuth Distance (km) Brightness Sun altitude
Rises 05:26:08 0° 195° (SSW) 3,380 5.3 -17.4°
Reaches altitude 10° 05:28:36 10° 191° (S) 2,451 4.6 -17.0°
Maximum altitude 05:34:06 58° 114° (ESE) 975 2.8 -16.2°
Drops below altitude 10° 05:39:39 10° 36° (NE) 2,471 4.9 -15.3°
Sets 05:42:08 0° 33° (NNE) 3,411 5.6 -15.0°
